Hourly Data Report for December 12, 2020

L'ASSOMPTION
QUEBEC
Current Station Operator: ECCC - MSC

45°48'34.000" N
73°26'05.000" W
21.00 m
7014160
71524
WEW

Download Data

Hourly Data (December 2020)
Hourly Data Report for December 12, 2020
TIME
LST
Temp Definition
°C
Dew Point Definition
°C
Rel Hum Definition
%
Precip. Amount Definition
mm

Wind Dir Definition
10's deg

Wind Spd Definition
km/h
Visibility Definition
km
Stn Press Definition
kPa
Hmdx Definition


Wind Chill Definition


Weather Definition


00:00 0.2 -1.3 89 0.0 35 4   101.96     LegendNANA
01:00 0.9 -1.0 87 0.0 35 5   102.03     LegendNANA
02:00 1.5 -1.1 83 0.0 3 6   102.09     LegendNANA
03:00 1.6 -1.2 82 0.0 5 6   102.15     LegendNANA
04:00 1.2 -2.0 79 0.0 2 11   102.16     LegendNANA
05:00 0.9 -2.2 79 0.0 3 7   102.21     LegendNANA
06:00 0.6 -2.7 78 0.0 3 9   102.25     LegendNANA
07:00 0.3 -3.0 79 0.0 4 8   102.34     LegendNANA
08:00 0.3 -3.3 77 0.0 3 10   102.28     LegendNANA
09:00 0.3 -3.6 75 0.0 3 11   102.29     LegendNANA
10:00 0.3 -3.7 75 0.0 3 10   102.27     LegendNANA
11:00 0.5 -3.4 75 0.0 3 13   102.10     LegendNANA
12:00 0.9 -2.6 78 0.0 3 10   102.00     LegendNANA
13:00 0.8 -2.3 79 0.0 2 14   101.82     LegendNANA
14:00 1.0 -1.6 83 0.0 3 11   101.70     LegendNANA
15:00 0.9 -1.0 87 0.3 4 12   101.62     LegendNANA
16:00 0.9 -0.7 89 0.6 5 14   101.50     LegendNANA
17:00 1.0 -0.5 89 0.0 3 13   101.41     LegendNANA
18:00 1.1 -0.2 91 0.4 3 12   101.30     LegendNANA
19:00 1.5 0.3 92 0.5 4 14   101.19     LegendNANA
20:00 1.7 0.7 93 0.0 5 14   101.05     LegendNANA
21:00 1.8 0.9 94 0.2 4 10   101.01     LegendNANA
22:00 1.8 1.0 95 1.8 4 13   100.89     LegendNANA
23:00 2.0 1.2 95 0.0 4 7   100.83     LegendNANA

Notes on Data Quality.

Legend

  • E = Estimated
  • M = Missing
  • NA = Not Available*
  • [empty] = Indicates an unobserved value
Date modified: